Starlink 31322

operational
NORAD ID: 59168 Int'l Des: 2024-044 Owner: SPXS Country: US Constellation: starlink
LEOCIRCULAR

About Starlink 31322

Description loading...

Live Position

Loading 3D Globe...

Upcoming Passes

Altitude History

Altitude vs Time

uPlot chart will show altitude changes over time

Two-Line Element Set

1 59168U 24044S 25257.35418330 .00000397 00000-0 23945-4 0 9997
2 59168 43.0039 23.1871 0001675 261.3986 98.6676 15.27580208 86628
Epoch: Sep 14, 2025 • Age: 26 hours

Current Status

Altitude 490.3 km
Velocity 7.62 km/s
Sub-Earth Point -30.02°S, 179.65°E
Launch Date Mar 4, 2024
Age 1.5 years
Type internet

Technical Details

Classification Payload
Mass 730.00 kg
Dry Mass 700.00 kg
Total Mass 730.00 kg
Length 0.30 m
Diameter 4.10 m
Span 29.00 m
Shape Box + pan
Manufacturer SPXS
Bus Type Starlink V2M
Phase Status In Orbit
Owner/State SPXS/US

Large Constellations

Loading constellations...